Meteo orario Aligarh

Oggi, 25 Ottobre, Domenica

Tempo Temperatura Precipitazioni Vento Pressione Umidità
00:00 +25°C° 0 mm 1 m/s 740 mm Hg 20%
01:00 +24°C° 0 mm 1 m/s 740 mm Hg 21%
02:00 +24°C° 0 mm 1 m/s 740 mm Hg 22%
03:00 +23°C° 0 mm 1 m/s 740 mm Hg 23%
04:00 +21°C° 0 mm 0 m/s 740 mm Hg 24%
05:00 +21°C° 0 mm 0 m/s 741 mm Hg 24%
06:00 +24°C° 0 mm 1 m/s 741 mm Hg 24%
07:00 +26°C° 0 mm 1 m/s 742 mm Hg 24%
08:00 +27°C° 0 mm 2 m/s 743 mm Hg 23%
09:00 +30°C° 0 mm 1 m/s 743 mm Hg 21%
10:00 +32°C° 0 mm 1 m/s 743 mm Hg 18%
11:00 +34°C° 0 mm 1 m/s 742 mm Hg 15%
12:00 +36°C° 0 mm 2 m/s 742 mm Hg 13%
13:00 +36°C° 0 mm 2 m/s 741 mm Hg 11%
14:00 +37°C° 0 mm 2 m/s 740 mm Hg 10%
15:00 +34°C° 0 mm 1 m/s 740 mm Hg 12%
16:00 +32°C° 0 mm 1 m/s 740 mm Hg 13%
17:00 +31°C° 0 mm 1 m/s 739 mm Hg 15%
18:00 +29°C° 0 mm 1 m/s 740 mm Hg 16%
19:00 +28°C° 0 mm 1 m/s 740 mm Hg 17%
20:00 +27°C° 0 mm 2 m/s 741 mm Hg 18%
21:00 +27°C° 0 mm 1 m/s 741 mm Hg 19%
22:00 +26°C° 0 mm 1 m/s 741 mm Hg 20%
23:00 +25°C° 0 mm 1 m/s 741 mm Hg 21%

Domani, 26 Ottobre, Lunedi

Tempo Temperatura Precipitazioni Vento Pressione Umidità
00:00 +25°C° 0 mm 1 m/s 741 mm Hg 22%
01:00 +25°C° 0 mm 1 m/s 741 mm Hg 23%
02:00 +24°C° 0 mm 1 m/s 741 mm Hg 24%
03:00 +24°C° 0 mm 1 m/s 741 mm Hg 24%
04:00 +23°C° 0 mm 1 m/s 741 mm Hg 25%
05:00 +23°C° 0 mm 1 m/s 741 mm Hg 25%
06:00 +24°C° 0 mm 1 m/s 742 mm Hg 24%
07:00 +26°C° 0 mm 1 m/s 742 mm Hg 23%
08:00 +27°C° 0 mm 1 m/s 743 mm Hg 22%
09:00 +29°C° 0 mm 1 m/s 743 mm Hg 20%
10:00 +32°C° 0 mm 1 m/s 743 mm Hg 17%
11:00 +35°C° 0 mm 2 m/s 743 mm Hg 14%
12:00 +36°C° 0 mm 2 m/s 742 mm Hg 12%
13:00 +37°C° 0 mm 3 m/s 741 mm Hg 10%
14:00 +37°C° 0 mm 3 m/s 740 mm Hg 9%
15:00 +35°C° 0 mm 2 m/s 740 mm Hg 10%
16:00 +32°C° 0 mm 2 m/s 740 mm Hg 12%
17:00 +30°C° 0 mm 1 m/s 740 mm Hg 14%
18:00 +29°C° 0 mm 1 m/s 740 mm Hg 14%
19:00 +26°C° 0 mm 0 m/s 740 mm Hg 14%
20:00 +25°C° 0 mm 0 m/s 741 mm Hg 14%
21:00 +25°C° 0 mm 0 m/s 741 mm Hg 14%
22:00 +26°C° 0 mm 1 m/s 741 mm Hg 15%
23:00 +26°C° 0 mm 1 m/s 741 mm Hg 15%

Dopodomani, 27 Ottobre, Martedi

Tempo Temperatura Precipitazioni Vento Pressione Umidità
00:00 +25°C° 0 mm 1 m/s 741 mm Hg 16%
01:00 +24°C° 0 mm 1 m/s 740 mm Hg 17%
02:00 +24°C° 0 mm 2 m/s 740 mm Hg 17%
03:00 +23°C° 0 mm 2 m/s 740 mm Hg 18%
04:00 +23°C° 0 mm 2 m/s 740 mm Hg 18%
05:00 +21°C° 0 mm 2 m/s 740 mm Hg 18%
06:00 +24°C° 0 mm 1 m/s 741 mm Hg 18%
07:00 +25°C° 0 mm 1 m/s 741 mm Hg 17%
08:00 +26°C° 0 mm 1 m/s 742 mm Hg 17%
09:00 +29°C° 0 mm 2 m/s 742 mm Hg 15%
10:00 +31°C° 0 mm 2 m/s 742 mm Hg 13%
11:00 +34°C° 0 mm 2 m/s 742 mm Hg 11%
12:00 +35°C° 0 mm 2 m/s 741 mm Hg 10%
13:00 +36°C° 0 mm 2 m/s 741 mm Hg 9%
14:00 +36°C° 0 mm 2 m/s 740 mm Hg 8%
15:00 +35°C° 0 mm 2 m/s 740 mm Hg 10%
16:00 +32°C° 0 mm 2 m/s 740 mm Hg 12%
17:00 +30°C° 0 mm 2 m/s 740 mm Hg 14%
18:00 +29°C° 0 mm 1 m/s 740 mm Hg 14%
19:00 +28°C° 0 mm 1 m/s 740 mm Hg 14%
20:00 +26°C° 0 mm 1 m/s 741 mm Hg 14%
21:00 +26°C° 0 mm 1 m/s 741 mm Hg 14%
22:00 +26°C° 0 mm 1 m/s 741 mm Hg 14%
23:00 +25°C° 0 mm 1 m/s 741 mm Hg 14%

28 Ottobre, Mercoledi

Tempo Temperatura Precipitazioni Vento Pressione Umidità
00:00 +25°C° 0 mm 1 m/s 740 mm Hg 15%
01:00 +24°C° 0 mm 1 m/s 740 mm Hg 16%
02:00 +23°C° 0 mm 1 m/s 740 mm Hg 16%
03:00 +23°C° 0 mm 1 m/s 740 mm Hg 17%
04:00 +22°C° 0 mm 1 m/s 740 mm Hg 17%
05:00 +22°C° 0 mm 1 m/s 741 mm Hg 17%
06:00 +23°C° 0 mm 1 m/s 741 mm Hg 17%
07:00 +25°C° 0 mm 1 m/s 742 mm Hg 17%
08:00 +26°C° 0 mm 1 m/s 743 mm Hg 16%
09:00 +29°C° 0 mm 1 m/s 743 mm Hg 14%
10:00 +31°C° 0 mm 1 m/s 743 mm Hg 13%
11:00 +33°C° 0 mm 1 m/s 743 mm Hg 11%
12:00 +35°C° 0 mm 2 m/s 742 mm Hg 10%
13:00 +36°C° 0 mm 2 m/s 741 mm Hg 9%
14:00 +36°C° 0 mm 2 m/s 741 mm Hg 8%
15:00 +35°C° 0 mm 2 m/s 741 mm Hg 10%
16:00 +32°C° 0 mm 2 m/s 740 mm Hg 12%
17:00 +30°C° 0 mm 1 m/s 740 mm Hg 14%
18:00 +28°C° 0 mm 1 m/s 741 mm Hg 15%
19:00 +27°C° 0 mm 1 m/s 741 mm Hg 15%
20:00 +26°C° 0 mm 1 m/s 741 mm Hg 16%
21:00 +26°C° 0 mm 1 m/s 741 mm Hg 17%
22:00 +25°C° 0 mm 1 m/s 741 mm Hg 17%
23:00 +22°C° 0 mm 0 m/s 741 mm Hg 18%

29 Ottobre, Giovedi

Tempo Temperatura Precipitazioni Vento Pressione Umidità
00:00 +24°C° 0 mm 1 m/s 741 mm Hg 18%
01:00 +24°C° 0 mm 1 m/s 741 mm Hg 18%
02:00 +23°C° 0 mm 1 m/s 741 mm Hg 19%
03:00 +23°C° 0 mm 1 m/s 741 mm Hg 19%
04:00 +22°C° 0 mm 1 m/s 741 mm Hg 19%
05:00 +22°C° 0 mm 1 m/s 742 mm Hg 19%
06:00 +21°C° 0 mm 0 m/s 742 mm Hg 19%
07:00 +23°C° 0 mm 0 m/s 743 mm Hg 18%
08:00 +24°C° 0 mm 0 m/s 743 mm Hg 18%
09:00 +27°C° 0 mm 0 m/s 743 mm Hg 16%
10:00 +29°C° 0 mm 0 m/s 743 mm Hg 14%
11:00 +32°C° 0 mm 0 m/s 743 mm Hg 12%
12:00 +34°C° 0 mm 1 m/s 743 mm Hg 12%
13:00 +35°C° 0 mm 1 m/s 742 mm Hg 11%
14:00 +36°C° 0 mm 2 m/s 741 mm Hg 11%
15:00 +35°C° 0 mm 2 m/s 741 mm Hg 13%
16:00 +32°C° 0 mm 2 m/s 741 mm Hg 16%
17:00 +30°C° 0 mm 2 m/s 741 mm Hg 18%
18:00 +29°C° 0 mm 2 m/s 741 mm Hg 20%
19:00 +28°C° 0 mm 1 m/s 741 mm Hg 21%
20:00 +27°C° 0 mm 1 m/s 741 mm Hg 23%
21:00 +26°C° 0 mm 1 m/s 741 mm Hg 24%
22:00 +25°C° 0 mm 1 m/s 741 mm Hg 25%
23:00 +25°C° 0 mm 1 m/s 741 mm Hg 26%

30 Ottobre, Venerdi

Tempo Temperatura Precipitazioni Vento Pressione Umidità
00:00 +24°C° 0 mm 1 m/s 741 mm Hg 26%
01:00 +24°C° 0 mm 1 m/s 741 mm Hg 26%
02:00 +24°C° 0 mm 1 m/s 741 mm Hg 27%
03:00 +23°C° 0 mm 1 m/s 741 mm Hg 27%
04:00 +23°C° 0 mm 1 m/s 741 mm Hg 28%
05:00 +21°C° 0 mm 0 m/s 741 mm Hg 28%
06:00 +22°C° 0 mm 0 m/s 741 mm Hg 26%
07:00 +23°C° 0 mm 0 m/s 742 mm Hg 25%
08:00 +27°C° 0 mm 1 m/s 743 mm Hg 24%
09:00 +29°C° 0 mm 1 m/s 742 mm Hg 21%
10:00 +31°C° 0 mm 1 m/s 742 mm Hg 18%
11:00 +33°C° 0 mm 1 m/s 742 mm Hg 16%
12:00 +34°C° 0 mm 1 m/s 741 mm Hg 15%
13:00 +35°C° 0 mm 1 m/s 741 mm Hg 14%
14:00 +34°C° 0 mm 0 m/s 740 mm Hg 13%
15:00 +32°C° 0 mm 0 m/s 739 mm Hg 15%
16:00 +30°C° 0 mm 0 m/s 739 mm Hg 17%
17:00 +28°C° 0 mm 0 m/s 739 mm Hg 19%
18:00 +29°C° 0 mm 1 m/s 739 mm Hg 20%
19:00 +28°C° 0 mm 1 m/s 740 mm Hg 21%
20:00 +27°C° 0 mm 2 m/s 740 mm Hg 22%
21:00 +27°C° 0 mm 2 m/s 740 mm Hg 24%
22:00 +26°C° 0 mm 2 m/s 740 mm Hg 25%
23:00 +26°C° 0 mm 2 m/s 740 mm Hg 26%
Mostrare altro

Abbiamo bisogno del tuo consenso

Meteoprog e i nostri fornitori di servizi possono memorizzare e accedere a dati personali come cookie, identificatori di dispositivi o altre tecnologie simili sul tuo dispositivo e possono elaborare tali dati per personalizzare i contenuti e gli annunci, nonché fornire funzionalità dei social media e analizzarne il traffico.

  • Archiviare e/o accedere alle informazioni sul tuo dispositivo

    Cookie, identificatori di dispositivi o altre informazioni possono essere memorizzati o resi accessibili sul tuo dispositivo per le finalità sopra indicate.

  • Annunci e contenuti personalizzati, misurazione di annunci e contenuti, approfondimenti sul pubblico e sviluppo di prodotti

    Gli annunci e i contenuti possono essere personalizzati in base a un profilo. È possibile aggiungere più dati per personalizzare meglio annunci e contenuti. È possibile misurare il rendimento degli annunci e dei contenuti. È possibile ricavare informazioni sul pubblico che ha visto gli annunci e i contenuti. Tali dati possono essere utilizzati per sviluppare o migliorare l'esperienza, i sistemi e il software dell'utente.

Cliccando su “Accetto”, acconsenti all'uso di cookie, identificatori di dispositivo, web beacon o altre tecnologie simili. Puoi modificare le impostazioni nel browser del tuo dispositivo.

Per determinati scopi, è possibile fare affidamento su interessi legali, piuttosto che sul consenso. Puoi approfondire questo argomento consultando la nostra Informativa sulla privacy e sui cookie.